Georgetown, SC

6:28 AM EDT on May 26, 2018 (GMT -0400)
Georgetown County

Weather History for KGGE - November, 2011

Change the Weather History Date:

Sunday, November 20, 2011

  Actual Average Record
Temperature  
Mean Temperature 62 °F -  
Max Temperature 77 °F 69 °F 77 °F (2011)
Min Temperature 48 °F 46 °F 28 °F (2014)
Degree Days  
Heating Degree Days 2    
Growing Degree Days 12 (Base 50)    
Moisture  
Dew Point 55 °F    
Average Humidity 82    
Maximum Humidity 94    
Minimum Humidity 54    
Precipitation  
Precipitation 0.00 in - - ()
Sea Level Pressure  
Sea Level Pressure 30.32 in    
Wind  
Wind Speed 1 mph (ESE)    
Max Wind Speed 8 mph    
Max Gust Speed -    
Visibility 8 miles    
Events Fog    
Averages and records for this station are not official NWS values.
T = Trace of Precipitation, MM = Missing Value Source: NWS Daily Summary

Daily Weather History Graph

Daily Weather History Graph

Search for Another Location

Airport or City:

Astronomy

Nov. 20, 2011 Rise Set
Actual Time 6:52 AM EST 5:12 PM EST
Civil Twilight 6:26 AM EST 5:39 PM EST
Nautical Twilight 5:56 AM EST 6:09 PM EST
Astronomical Twilight 5:26 AM EST 6:38 PM EST
Moon 1:34 AM EST (11/20) 1:48 PM EST (11/20)
Length of Visible Light 11h 12m
Length of Day
10h 19m
Waning Crescent, 27% of the Moon is Illuminated
Nov 20
Waning Crescent
Nov 25
New
Dec 2
First Quarter
Dec 10
Full
Dec 17
Last Quarter

Hourly Weather History & Observations

Time (EST) Temp. Dew Point Humidity Pressure Visibility Wind Dir Wind Speed Gust Speed Precip Events Conditions
12:35 AM 50.0 °F 46.4 °F 87% 30.32 in 2.0 mi Calm Calm - N/A   Scattered Clouds
12:55 AM 50.0 °F 48.2 °F 94% 30.32 in 5.0 mi Calm Calm - N/A   Scattered Clouds
1:35 AM 48.2 °F 46.4 °F 93% 30.32 in 7.0 mi Calm Calm - N/A   Clear
1:55 AM 50.0 °F 46.4 °F 87% 30.32 in 7.0 mi Calm Calm - N/A   Scattered Clouds
2:15 AM 50.0 °F 46.4 °F 87% 30.32 in 10.0 mi Calm Calm - N/A   Scattered Clouds
2:35 AM 48.2 °F 46.4 °F 93% 30.31 in 10.0 mi Calm Calm - N/A   Scattered Clouds
2:55 AM 50.0 °F 46.4 °F 87% 30.32 in 7.0 mi Calm Calm - N/A   Scattered Clouds
3:15 AM 50.0 °F 48.2 °F 94% 30.32 in 5.0 mi Calm Calm - N/A   Clear
3:55 AM 50.0 °F 46.4 °F 87% 30.31 in 5.0 mi Calm Calm - N/A   Clear
4:15 AM 48.2 °F 46.4 °F 93% 30.31 in 5.0 mi Calm Calm - N/A   Mostly Cloudy
4:35 AM 50.0 °F 46.4 °F 87% 30.31 in 3.0 mi Calm Calm - N/A   Mostly Cloudy
4:55 AM 50.0 °F 46.4 °F 87% 30.32 in 0.2 mi Calm Calm - N/A Fog Fog
5:15 AM 50.0 °F 46.4 °F 87% 30.32 in 7.0 mi Calm Calm - N/A   Clear
5:55 AM 48.2 °F 46.4 °F 93% 30.32 in 5.0 mi Calm Calm - N/A   Clear
6:15 AM 50.0 °F 46.4 °F 87% 30.33 in 7.0 mi Calm Calm - N/A   Clear
6:35 AM 48.2 °F 46.4 °F 93% 30.32 in 7.0 mi Calm Calm - N/A   Clear
6:55 AM 50.0 °F 46.4 °F 87% 30.32 in 7.0 mi Calm Calm - N/A   Clear
7:15 AM 50.0 °F 46.4 °F 87% 30.33 in 7.0 mi Calm Calm - N/A   Clear
7:55 AM 53.6 °F 51.8 °F 94% 30.34 in 7.0 mi Calm Calm - N/A   Clear
8:35 AM 59.0 °F 55.4 °F 88% 30.37 in 7.0 mi Calm Calm - N/A   Mostly Cloudy
8:55 AM 59.0 °F 57.2 °F 94% 30.37 in 7.0 mi Calm Calm - N/A   Mostly Cloudy
9:15 AM 60.8 °F 59.0 °F 94% 30.37 in 10.0 mi NNE 4.6 mph - N/A   Scattered Clouds
10:15 AM 68.0 °F 60.8 °F 78% 30.38 in 10.0 mi NNE 3.5 mph - N/A   Mostly Cloudy
10:35 AM 69.8 °F 59.0 °F 68% 30.38 in 10.0 mi NE 4.6 mph - N/A   Scattered Clouds
10:55 AM 71.6 °F 59.0 °F 64% 30.37 in 10.0 mi NE 4.6 mph - N/A   Clear
11:15 AM 73.4 °F 59.0 °F 61% 30.37 in 10.0 mi East 3.5 mph - N/A   Clear
11:35 AM 73.4 °F 57.2 °F 57% 30.36 in 10.0 mi East 4.6 mph - N/A   Clear
11:55 AM 73.4 °F 57.2 °F 57% 30.35 in 10.0 mi Calm Calm - N/A   Clear
12:15 PM 75.2 °F 59.0 °F 57% 30.34 in 10.0 mi SE 5.8 mph - N/A   Clear
12:35 PM 75.2 °F 59.0 °F 57% 30.33 in 10.0 mi ESE 5.8 mph - N/A   Clear
12:55 PM 75.2 °F 59.0 °F 57% 30.32 in 10.0 mi ESE 8.1 mph - N/A   Clear
1:15 PM 77.0 °F 59.0 °F 54% 30.32 in 10.0 mi SE 5.8 mph - N/A   Mostly Cloudy
1:35 PM 75.2 °F 59.0 °F 57% 30.32 in 10.0 mi ESE 6.9 mph - N/A   Overcast
1:55 PM 71.6 °F 59.0 °F 64% 30.31 in 10.0 mi ESE 8.1 mph - N/A   Overcast
2:15 PM 71.6 °F 59.0 °F 64% 30.31 in 10.0 mi ESE 6.9 mph - N/A   Overcast
2:35 PM 71.6 °F 59.0 °F 64% 30.31 in 10.0 mi ESE 6.9 mph - N/A   Overcast
3:15 PM 69.8 °F 59.0 °F 68% 30.31 in 10.0 mi SE 6.9 mph - N/A   Overcast
3:35 PM 69.8 °F 59.0 °F 68% 30.30 in 10.0 mi ESE 4.6 mph - N/A   Overcast
3:55 PM 68.0 °F 59.0 °F 73% 30.30 in 10.0 mi SE 5.8 mph - N/A   Overcast
4:15 PM 68.0 °F 59.0 °F 73% 30.30 in 10.0 mi ESE 4.6 mph - N/A   Overcast
4:55 PM 68.0 °F 59.0 °F 73% 30.31 in 10.0 mi SE 3.5 mph - N/A   Overcast
5:15 PM 66.2 °F 59.0 °F 78% 30.31 in 10.0 mi ESE 3.5 mph - N/A   Mostly Cloudy
5:35 PM 64.4 °F 59.0 °F 83% 30.31 in 10.0 mi Calm Calm - N/A   Mostly Cloudy
5:55 PM 64.4 °F 59.0 °F 83% 30.30 in 10.0 mi SE 3.5 mph - N/A   Overcast
6:15 PM 62.6 °F 59.0 °F 88% 30.31 in 10.0 mi Calm Calm - N/A   Scattered Clouds
6:35 PM 62.6 °F 59.0 °F 88% 30.31 in 10.0 mi Calm Calm - N/A   Clear
6:55 PM 62.6 °F 59.0 °F 88% 30.32 in 10.0 mi Calm Calm - N/A   Scattered Clouds
7:15 PM 60.8 °F 57.2 °F 88% 30.32 in 10.0 mi Calm Calm - N/A   Clear
7:35 PM 59.0 °F 57.2 °F 94% 30.32 in 10.0 mi Calm Calm - N/A   Clear
7:55 PM 59.0 °F 55.4 °F 88% 30.31 in 7.0 mi Calm Calm - N/A   Clear
8:15 PM 59.0 °F 57.2 °F 94% 30.31 in 7.0 mi Calm Calm - N/A   Mostly Cloudy
8:35 PM 59.0 °F 57.2 °F 94% 30.31 in 10.0 mi Calm Calm - N/A   Mostly Cloudy
8:55 PM 59.0 °F 55.4 °F 88% 30.31 in 10.0 mi Calm Calm - N/A   Overcast
9:15 PM 59.0 °F 55.4 °F 88% 30.30 in 10.0 mi Calm Calm - N/A   Overcast
9:35 PM 59.0 °F 57.2 °F 94% 30.30 in 10.0 mi Calm Calm - N/A   Overcast
9:55 PM 60.8 °F 59.0 °F 94% 30.30 in 10.0 mi Calm Calm - N/A   Overcast
10:15 PM 60.8 °F 59.0 °F 94% 30.30 in 10.0 mi Calm Calm - N/A   Overcast
10:35 PM 62.6 °F 59.0 °F 88% 30.30 in 10.0 mi Calm Calm - N/A   Overcast
10:55 PM 59.0 °F 55.4 °F 88% 30.30 in 7.0 mi Calm Calm - N/A   Scattered Clouds
11:15 PM 59.0 °F 57.2 °F 94% 30.30 in 10.0 mi Calm Calm - N/A   Mostly Cloudy
11:35 PM 59.0 °F 55.4 °F 88% 30.29 in 4.0 mi Calm Calm - N/A   Overcast
11:55 PM 59.0 °F 55.4 °F 88% 30.29 in 3.0 mi Calm Calm - N/A   Mostly Cloudy